Location: Street
(51.1247°N, 2.7429°W)
Time: 15:57:53
(UTC+00:00)

SR - Pass Details

Date: 30 November 2020
Orbit: 575 x 880 km, 66.7° (Epoch: 26 January)

Event Time Altitude Azimuth Distance (km) Brightness Sun altitude
Rises 02:25:30 0° 322° (NW) 3,141 - -49.2°
Reaches altitude 10° 02:27:47 10° 323° (NW) 2,264 - -48.9°
Maximum altitude 02:33:00 82° 52° (NE) 805 - -48.2°
Drops below altitude 10° 02:38:40 10° 140° (SE) 2,441 - -47.4°
Sets 02:41:12 0° 141° (SE) 3,405 - -47.1°
